Location: *
(34.8620°S, 39.3380°E)
Time: 02:30:38
(UTC+00:00)

COSMOS 2251 DEB - Visible Passes

Search period start: 07 October 2022 00:00
Search period end: 17 October 2022 00:00
Orbit: 595 x 623 km, 74.0° (Epoch: 06 October)

Date Brightness Start Highest point End Pass type
(mag) Time Alt. Az. Time Alt. Az. Time Alt. Az.
07 Oct ? 15:57:46 10° SSW 16:02:10 85° ESE 16:06:31 10° NNE visible
08 Oct ? 16:11:58 10° SSW 16:16:10 46° WNW 16:20:20 10° N visible
09 Oct ? 16:26:31 10° SW 16:29:59 23° W 16:33:25 10° NNW visible
10 Oct ? 16:42:04 10° WSW 16:43:36 12° W 16:45:08 10° WNW visible
